Weather in Suoyarvi

Russia / Republic of Karelia     62°05′16″N   32°22′25″E
temp.,
°C
wind,
m/s
gust,
m/s
humid.,
%
clouds,
%
prec.,
mm/h
press.,
hPa
HPBL,
m
2 march, tue
tue200:00+1wnw5128590 0.1 10041019
03:00−1wnw5158660 0.1 1005732
06:00−2wnw515870 0.0 1004678
09:00−3nw513891 0.0 1006594
12:00−1nw5127711 0.0 10081293
15:00−1nw5126827 0.0 10101546
18:00−4nw312780 0.0 1012546
21:00−5nw312850 0.0 1014393
3 march, wed
wed300:00−5wnw4119318 0.0 1013418
03:00−4wnw4139030 0.0 1013476
06:00−4wnw412919 0.0 1010519
09:00−4w5119147 0.0 1010456
12:00−2w589082 0.0 1008584
15:00−2w489191 0.1 1007686
18:00−2wsw3894100 0.1 1002513
21:00−2sw3898100 1.5 999413
4 march, thu
thu400:00−2wnw5128795 0.6 996837
03:00−3n7139292 1.8 9971040
06:00−6nnw41092100 0.5 998491
09:00−8nnw4109386 0.5 1000364
12:00−6nnw378889 0.0 1000552
15:00−5nw358694 0.1 1001712
18:00−7nw2394100 0.1 1002113
21:00−8nnw2597100 0.3 1003167
5 march, fri
fri500:00−8nnw3894100 0.4 1004437
03:00−9nnw379494 0.5 1004257
06:00−13nw259684 0.0 1005123
09:00−12nw279542 0.0 1006231
12:00−9n368992 0.1 1009596
15:00−9nne478596 0.3 1011725
18:00−12nnw248955 0.0 1012101
21:00−14nw229228 0.0 101421
6 march, sat
sat600:00−14wnw239787 0.0 101458
03:00−16w23960 0.0 101356
06:00−15w259643 0.0 1012114
09:00−13w389538 0.0 1011227
12:00−9wsw369089 0.0 1009365
15:00−7sw478993 0.0 1006565
18:00−8ssw41091100 0.1 1004590
21:00−9s31093100 0.1 1001404